FW0699 Weather Reports


time (UTC)temp
C
wind
direction
speed
KPH
gust
KPH
rain 1hr
cm
rain 24hr
cm
rain mn
cm
humidity
%
barometer
mb
20260505004246 18 186 4.8 12.9 0.00 0.00 0.00 45 1010.3
20260505003807 18 165 4.8 12.9 0.00 0.00 0.00 45 1010.3
20260505003234 19 196 4.8 9.7 0.00 0.00 0.00 45 1010.3
20260505002644 19 141 3.2 12.9 0.00 0.00 0.00 44 1010.3
20260505002053 19 209 4.8 12.9 0.00 0.00 0.00 44 1010.2
20260505001504 19 201 3.2 14.5 0.00 0.00 0.00 44 1010.2
20260505001024 20 161 4.8 14.5 0.00 0.00 0.00 42 1010.2
20260505000432 20 209 3.2 12.9 0.00 0.00 0.00 43 1010.1
20260504235844 20 183 8.0 17.7 0.00 0.00 0.00 42 1010.1
20260504235254 20 152 6.4 17.7 0.00 0.00 0.00 41 1010.1
20260504234702 20 211 6.4 12.9 0.00 0.00 0.00 42 1010.1
20260504234224 20 192 4.8 12.9 0.00 0.00 0.00 41 1010.1
20260504233632 21 211 4.8 12.9 0.00 0.00 0.00 41 1010.1
20260504233154 21 207 4.8 19.3 0.00 0.00 0.00 40 1010.1
20260504232709 21 165 8.0 19.3 0.00 0.00 0.00 39 1010.1
20260504232013 21 182 6.4 16.1 0.00 0.00 0.00 39 1010.1
20260504231545 21 178 8.0 17.7 0.00 0.00 0.00 38 1010.1
20260504230942 21 192 6.4 17.7 0.00 0.00 0.00 39 1010.2
20260504230348 21 207 6.4 16.1 0.00 0.00 0.00 40 1010.2
20260504225801 21 209 8.0 17.7 0.00 0.00 0.00 38 1010.2
20260504225319 22 194 9.7 20.9 0.00 0.00 0.00 38 1010.2
20260504224729 22 204 8.0 27.4 0.00 0.00 0.00 38 1010.2
20260504224245 22 290 11.3 25.7 0.00 0.00 0.00 37 1010.1
20260504223702 22 229 8.0 20.9 0.00 0.00 0.00 38 1010.2
20260504223111 22 184 8.0 17.7 0.00 0.00 0.00 39 1010.3
20260504222631 22 194 9.7 17.7 0.00 0.00 0.00 37 1010.1
20260504222149 22 180 11.3 17.7 0.00 0.00 0.00 38 1010.1
20260504221606 22 212 8.0 17.7 0.00 0.00 0.00 38 1010.1
20260504221114 22 184 8.0 24.1 0.00 0.00 0.00 37 1010.2
20260504220507 22 213 11.3 24.1 0.00 0.00 0.00 38 1010.2
20260504220023 22 162 12.9 24.1 0.00 0.00 0.00 36 1010.0
20260504215606 22 209 11.3 16.1 0.00 0.00 0.00 38 1010.2
20260504215007 22 226 4.8 17.7 0.00 0.00 0.00 39 1010.1
20260504214532 22 178 8.0 19.3 0.00 0.00 0.00 38 1010.1
20260504214019 22 216 11.3 17.7 0.00 0.00 0.00 37 1010.2
20260504213511 22 215 11.3 22.5 0.00 0.00 0.00 37 1010.2
20260504213011 22 221 8.0 22.5 0.00 0.00 0.00 39 1010.2
20260504212506 22 227 9.7 24.1 0.00 0.00 0.00 37 1010.3
20260504212008 22 196 11.3 24.1 0.00 0.00 0.00 38 1010.2
20260504211511 22 198 9.7 24.1 0.00 0.00 0.00 39 1010.2
20260504211004 22 216 12.9 29.0 0.00 0.00 0.00 38 1010.2
20260504210511 22 180 12.9 29.0 0.00 0.00 0.00 39 1010.2
20260504210021 22 195 14.5 25.7 0.00 0.00 0.00 39 1010.2
20260504205504 22 225 6.4 20.9 0.00 0.00 0.00 38 1010.2
20260504205004 22 205 12.9 20.9 0.00 0.00 0.00 38 1010.2
20260504204510 22 244 9.7 29.0 0.00 0.00 0.00 38 1010.2
20260504204004 22 196 11.3 29.0 0.00 0.00 0.00 38 1010.2
20260504203505 22 129 11.3 25.7 0.00 0.00 0.00 38 1010.3
20260504203016 22 166 11.3 20.9 0.00 0.00 0.00 37 1010.2
20260504202511 22 217 4.8 20.9 0.00 0.00 0.00 40 1010.4
20260504202003 22 221 11.3 20.9 0.00 0.00 0.00 38 1010.5
20260504201524 22 194 9.7 20.9 0.00 0.00 0.00 38 1010.5
20260504201005 22 257 9.7 22.5 0.00 0.00 0.00 40 1010.6
20260504200506 22 224 14.5 24.1 0.00 0.00 0.00 38 1010.6
20260504200028 22 213 12.9 24.1 0.00 0.00 0.00 38 1010.7
20260504195507 22 273 4.8 24.1 0.00 0.00 0.00 39 1010.7
20260504195003 22 219 14.5 24.1 0.00 0.00 0.00 38 1010.8
20260504194512 22 217 9.7 20.9 0.00 0.00 0.00 38 1011.0
20260504194005 22 200 9.7 20.9 0.00 0.00 0.00 36 1011.1
20260504193508 22 290 6.4 17.7 0.00 0.00 0.00 40 1011.1
20260504193028 22 215 8.0 17.7 0.00 0.00 0.00 39 1011.2
20260504192510 22 137 4.8 14.5 0.00 0.00 0.00 38 1011.2
20260504192010 22 205 4.8 12.9 0.00 0.00 0.00 39 1011.3
20260504191516 22 244 6.4 17.7 0.00 0.00 0.00 39 1011.4
20260504191006 22 240 8.0 17.7 0.00 0.00 0.00 37 1011.6
20260504190511 22 220 12.9 17.7 0.00 0.00 0.00 40 1011.6
20260504190030 21 227 8.0 17.7 0.00 0.00 0.00 40 1011.7
20260504185504 21 165 9.7 17.7 0.00 0.00 0.00 40 1011.8
20260504185009 21 246 6.4 24.1 0.00 0.00 0.00 39 1011.9
20260504184518 21 223 14.5 24.1 0.00 0.00 0.00 40 1012.0
20260504184009 21 222 9.7 17.7 0.00 0.00 0.00 40 1012.1
20260504183513 21 206 9.7 22.5 0.00 0.00 0.00 40 1012.1
20260504183014 21 203 11.3 22.5 0.00 0.00 0.00 39 1012.2
20260504182508 21 206 8.0 16.1 0.00 0.00 0.00 41 1012.3
20260504182011 21 315 6.4 22.5 0.00 0.00 0.00 39 1012.3
20260504181522 21 289 9.7 22.5 0.00 0.00 0.00 39 1012.3
20260504181010 21 232 9.7 19.3 0.00 0.00 0.00 40 1012.4
20260504180508 21 224 9.7 19.3 0.00 0.00 0.00 38 1012.4
20260504180011 21 248 6.4 19.3 0.00 0.00 0.00 38 1012.5
20260504175502 21 242 9.7 19.3 0.00 0.00 0.00 38 1012.3
20260504175006 21 230 11.3 17.7 0.00 0.00 0.00 40 1012.4
20260504174518 20 254 6.4 19.3 0.00 0.00 0.00 36 1012.5
20260504174007 20 231 9.7 24.1 0.00 0.00 0.00 41 1012.6
20260504173508 20 202 14.5 24.1 0.00 0.00 0.00 39 1012.7
20260504173029 20 215 6.4 24.1 0.00 0.00 0.00 41 1012.6
20260504172510 20 209 11.3 22.5 0.00 0.00 0.00 39 1012.6
20260504172015 20 188 14.5 19.3 0.00 0.00 0.00 42 1012.9
20260504171530 20 248 6.4 32.2 0.00 0.00 0.00 39 1013.0
20260504171012 20 238 6.4 32.2 0.00 0.00 0.00 41 1013.0
20260504170506 20 223 9.7 19.3 0.00 0.00 0.00 43 1012.9
20260504151003 18 225 6.4 16.1 0.00 0.00 0.00 48 1014.3
20260504150504 17 196 9.7 16.1 0.00 0.00 0.00 44 1014.3
20260504141004 15 193 8.0 17.7 0.00 0.00 0.00 47 1014.4
20260504140504 15 281 8.0 16.1 0.00 0.00 0.00 47 1014.3
20260504130508 12 228 3.2 12.9 0.00 0.00 0.00 63 1014.6
20260504110507 6 205 1.6 4.8 0.00 0.00 0.00 70 1015.1
20260504100503 7 196 3.2 9.7 0.00 0.00 0.00 65 1015.0
20260504081516 3 155 1.6 3.2 0.00 0.00 0.00 79 1015.3
20260504081008 3 145 1.6 3.2 0.00 0.00 0.00 78 1015.4
20260504080503 3 132 0.0 0.0 0.00 0.00 0.00 79 1015.3
20260504050505 3 133 0.0 0.0 0.00 0.00 0.00 76 1015.8
20260504050018 4 133 0.0 0.0 0.00 0.00 0.00 75 1015.8
20260504045511 4 182 0.0 0.0 0.00 0.00 0.00 74 1015.8
20260504045003 4 107 0.0 0.0 0.00 0.00 0.00 75 1015.7
20260504044507 4 107 0.0 0.0 0.00 0.00 0.00 74 1015.7
20260504044003 4 107 0.0 0.0 0.00 0.00 0.00 74 1015.6
20260504043505 4 107 0.0 0.0 0.00 0.00 0.00 73 1015.6
20260504043008 4 107 0.0 0.0 0.00 0.00 0.00 74 1015.5
20260504042504 4 107 0.0 0.0 0.00 0.00 0.00 71 1015.5
20260504042008 4 107 0.0 0.0 0.00 0.00 0.00 70 1015.5
20260504041509 5 107 0.0 0.0 0.00 0.00 0.00 70 1015.5
20260504041003 5 107 0.0 0.0 0.00 0.00 0.00 70 1015.5
20260504040507 5 107 0.0 3.2 0.00 0.00 0.00 69 1015.4
20260504040024 5 107 0.0 3.2 0.00 0.00 0.00 70 1015.4
20260504035505 5 107 0.0 3.2 0.00 0.00 0.00 72 1015.3
20260504035003 5 121 0.0 1.6 0.00 0.00 0.00 71 1015.4
20260504034508 5 196 0.0 0.0 0.00 0.00 0.00 66 1015.5
20260504034007 5 196 0.0 0.0 0.00 0.00 0.00 66 1015.6
20260504033504 5 196 0.0 0.0 0.00 0.00 0.00 66 1015.7
20260504033016 5 196 0.0 0.0 0.00 0.00 0.00 66 1015.6
20260504032508 6 196 0.0 0.0 0.00 0.00 0.00 64 1015.6
20260504032006 6 196 0.0 0.0 0.00 0.00 0.00 63 1015.5
20260504031518 6 196 0.0 0.0 0.00 0.00 0.00 62 1015.5
20260504031009 6 196 0.0 0.0 0.00 0.00 0.00 62 1015.4
20260504030509 6 196 0.0 0.0 0.00 0.00 0.00 62 1015.4
20260504030008 6 196 0.0 0.0 0.00 0.00 0.00 62 1015.4
20260504025505 6 196 0.0 0.0 0.00 0.00 0.00 61 1015.4
20260504025004 6 196 0.0 0.0 0.00 0.00 0.00 61 1015.4
20260504024503 7 196 0.0 0.0 0.00 0.00 0.00 62 1015.4
20260504024003 7 196 0.0 0.0 0.00 0.00 0.00 63 1015.3
20260504023506 7 196 0.0 1.6 0.00 0.00 0.00 62 1015.3
20260504023018 7 196 0.0 1.6 0.00 0.00 0.00 58 1015.4
20260504022506 7 196 0.0 0.0 0.00 0.00 0.00 57 1015.4
20260504022007 7 196 0.0 0.0 0.00 0.00 0.00 58 1015.2
20260504021522 8 196 0.0 3.2 0.00 0.00 0.00 58 1015.3
20260504021007 8 196 0.0 3.2 0.00 0.00 0.00 57 1015.2
20260504020503 8 196 0.0 1.6 0.00 0.00 0.00 54 1015.2
20260504020027 8 196 0.0 1.6 0.00 0.00 0.00 54 1015.2
20260504015503 8 196 0.0 1.6 0.00 0.00 0.00 53 1015.2
20260504015005 8 196 0.0 0.0 0.00 0.00 0.00 54 1015.2
20260504014512 9 196 0.0 0.0 0.00 0.00 0.00 54 1015.1
20260504014021 9 196 0.0 3.2 0.00 0.00 0.00 50 1015.2
20260504013506 9 196 0.0 3.2 0.00 0.00 0.00 50 1015.2
20260504013017 10 196 0.0 3.2 0.00 0.00 0.00 50 1015.1
20260504012507 10 196 0.0 1.6 0.00 0.00 0.00 49 1015.1
20260504012007 10 196 0.0 0.0 0.00 0.00 0.00 48 1014.9
20260504011508 10 196 0.0 1.6 0.00 0.00 0.00 46 1014.9
20260504011006 10 196 0.0 3.2 0.00 0.00 0.00 46 1014.8
20260504010507 11 196 0.0 3.2 0.00 0.00 0.00 47 1014.8
20260504010024 11 196 0.0 3.2 0.00 0.00 0.00 46 1014.9
20260504005504 11 202 1.6 3.2 0.00 0.00 0.00 42 1014.8
20260504005010 11 273 0.0 3.2 0.00 0.00 0.00 41 1014.8
20260504004516 11 273 0.0 0.0 0.00 0.00 0.00 42 1014.7